Lyon, MS

12:19 PM CST on January 22, 2017 (GMT -0600)
Fletcher

Weather History for KCKM - April, 2014

Change the Weather History Date:

Sunday, April 13, 2014

  Actual Average (KUOX) Record (KUOX)
Temperature  
Mean Temperature 70 °F -  
Max Temperature 78 °F 73 °F 86 °F (1930)
Min Temperature 62 °F 49 °F 29 °F (1940)
Cooling Degree Days 5    
Growing Degree Days 20 (Base 50)    
Moisture  
Dew Point 61 °F    
Average Humidity 72    
Maximum Humidity 100    
Minimum Humidity 51    
Precipitation  
Precipitation 0.18 in - - ()
Sea Level Pressure  
Sea Level Pressure 29.88 in    
Wind  
Wind Speed 14 mph (SSE)    
Max Wind Speed 23 mph    
Max Gust Speed 32 mph    
Visibility 10 miles    
Events      
Averages and records for this station are not official NWS values.
T = Trace of Precipitation, MM = Missing Value Source: NWS Daily Summary

Daily Weather History Graph

Daily Weather History Graph

Search for Another Location

Airport or City:

Trip Planner

Search our weather history database for the weather conditions in past years. The results will help you decide how hot, cold, wet, or windy it might be!

Date:

Astronomy

Apr. 13, 2014 Rise Set
Actual Time 6:33 AM CDT 7:32 PM CDT
Civil Twilight 6:07 AM CDT 7:58 PM CDT
Nautical Twilight 5:37 AM CDT 8:28 PM CDT
Astronomical Twilight 5:05 AM CDT 9:00 PM CDT
Moon 6:13 PM CDT (4/13) 5:27 AM CDT (4/13)
Length of Visible Light 13h 50m
Length of Day
12h 58m
Waxing Gibbous, 97% of the Moon is Illuminated
Apr 13
Waxing Gibbous
Apr 15
Full
Apr 22
Last Quarter
Apr 29
New
May 6
First Quarter

Hourly Weather History & Observations

Time (CDT) Temp. Dew Point Humidity Pressure Visibility Wind Dir Wind Speed Gust Speed Precip Events Conditions
12:15 AM 64.4 °F 59.0 °F 83% 29.93 in 10.0 mi SSE 9.2 mph - N/A   Unknown
12:35 AM 66.2 °F 59.0 °F 78% 29.94 in 10.0 mi South 12.7 mph - N/A   Unknown
12:55 AM 66.2 °F 59.0 °F 78% 29.94 in 10.0 mi SSE 11.5 mph - N/A   Unknown
1:15 AM 66.2 °F 59.0 °F 78% 29.94 in 10.0 mi South 12.7 mph - N/A   Unknown
1:35 AM 66.2 °F 59.0 °F 78% 29.94 in 10.0 mi SSE 11.5 mph - N/A   Unknown
1:55 AM 66.2 °F 60.8 °F 83% 29.94 in 10.0 mi SSE 10.4 mph - N/A   Unknown
2:15 AM 66.2 °F 60.8 °F 83% 29.95 in 10.0 mi SSE 9.2 mph - N/A   Unknown
2:35 AM 64.4 °F 60.8 °F 88% 29.95 in 10.0 mi SSE 8.1 mph - N/A   Unknown
2:55 AM 64.4 °F 60.8 °F 88% 29.94 in 10.0 mi SSE 10.4 mph - N/A   Unknown
3:15 AM 66.2 °F 60.8 °F 83% 29.94 in 10.0 mi SSE 13.8 mph - N/A   Unknown
3:55 AM 64.4 °F 59.0 °F 83% 29.94 in 10.0 mi SSE 12.7 mph - N/A   Unknown
4:15 AM 64.4 °F 59.0 °F 83% 29.93 in 10.0 mi SSE 12.7 mph - N/A   Unknown
4:35 AM 64.4 °F 59.0 °F 83% 29.93 in 10.0 mi SSE 12.7 mph - N/A   Unknown
5:15 AM 64.4 °F 59.0 °F 83% 29.94 in 10.0 mi SSE 9.2 mph - N/A   Unknown
5:35 AM 64.4 °F 57.2 °F 77% 29.94 in 10.0 mi SSE 10.4 mph - N/A   Unknown
5:55 AM 64.4 °F 57.2 °F 77% 29.93 in 10.0 mi SSE 12.7 mph - N/A   Unknown
6:15 AM 62.6 °F 57.2 °F 82% 29.94 in 10.0 mi SSE 12.7 mph - N/A   Unknown
6:35 AM 62.6 °F 57.2 °F 82% 29.94 in 10.0 mi SSE 12.7 mph - N/A   Unknown
6:55 AM 62.6 °F 57.2 °F 82% 29.95 in 10.0 mi SSE 12.7 mph - N/A   Unknown
7:15 AM 62.6 °F 59.0 °F 88% 29.96 in 10.0 mi SSE 10.4 mph - N/A   Unknown
7:35 AM 64.4 °F 59.0 °F 83% 29.97 in 10.0 mi SSE 10.4 mph - N/A   Unknown
7:55 AM 64.4 °F 59.0 °F 83% 29.97 in 10.0 mi SSE 11.5 mph - N/A   Unknown
8:15 AM 64.4 °F 59.0 °F 83% 29.97 in 10.0 mi SSE 16.1 mph - N/A   Unknown
8:35 AM 66.2 °F 59.0 °F 78% 29.96 in 10.0 mi SSE 17.3 mph - N/A   Unknown
8:55 AM 66.2 °F 60.8 °F 83% 29.97 in 10.0 mi SSE 15.0 mph 20.7 mph N/A   Unknown
9:15 AM 68.0 °F 60.8 °F 78% 29.97 in 10.0 mi SSE 19.6 mph 24.2 mph N/A   Unknown
9:35 AM 68.0 °F 62.6 °F 83% 29.97 in 10.0 mi SSE 17.3 mph 24.2 mph N/A   Unknown
9:55 AM 71.6 °F 62.6 °F 73% 29.97 in 10.0 mi South 17.3 mph 23.0 mph N/A   Unknown
10:15 AM 71.6 °F 62.6 °F 73% 29.97 in 10.0 mi South 18.4 mph 25.3 mph N/A   Unknown
10:35 AM 73.4 °F 64.4 °F 73% 29.96 in 10.0 mi South 18.4 mph 25.3 mph N/A   Unknown
10:55 AM 73.4 °F 62.6 °F 69% 29.96 in 10.0 mi South 17.3 mph 27.6 mph N/A   Unknown
11:15 AM 73.4 °F 62.6 °F 69% 29.95 in 10.0 mi South 20.7 mph 32.2 mph N/A   Unknown
11:35 AM 75.2 °F 62.6 °F 65% 29.95 in 10.0 mi South 20.7 mph 28.8 mph N/A   Unknown
11:55 AM 75.2 °F 62.6 °F 65% 29.94 in 10.0 mi South 17.3 mph 29.9 mph N/A   Unknown
12:15 PM 75.2 °F 62.6 °F 65% 29.94 in 10.0 mi South 17.3 mph 27.6 mph N/A   Unknown
12:35 PM 75.2 °F 62.6 °F 65% 29.93 in 10.0 mi South 18.4 mph 24.2 mph N/A   Unknown
12:55 PM 75.2 °F 62.6 °F 65% 29.93 in 10.0 mi South 17.3 mph 26.5 mph N/A   Unknown
1:15 PM 75.2 °F 62.6 °F 65% 29.92 in 10.0 mi South 19.6 mph 25.3 mph N/A   Unknown
1:35 PM 75.2 °F 62.6 °F 65% 29.90 in 10.0 mi South 23.0 mph - N/A   Unknown
1:55 PM 77.0 °F 60.8 °F 57% 29.90 in 10.0 mi South 15.0 mph 24.2 mph N/A   Unknown
2:15 PM 75.2 °F 60.8 °F 61% 29.89 in 10.0 mi South 17.3 mph 21.9 mph N/A   Unknown
2:35 PM 75.2 °F 60.8 °F 61% 29.89 in 10.0 mi South 19.6 mph 25.3 mph N/A   Unknown
2:55 PM 75.2 °F 60.8 °F 61% 29.88 in 10.0 mi SSE 20.7 mph 26.5 mph N/A   Unknown
3:15 PM 75.2 °F 60.8 °F 61% 29.87 in 10.0 mi South 19.6 mph 26.5 mph N/A   Unknown
3:35 PM 77.0 °F 60.8 °F 57% 29.85 in 10.0 mi SSE 16.1 mph 25.3 mph N/A   Unknown
3:55 PM 77.0 °F 60.8 °F 57% 29.84 in 10.0 mi SSE 21.9 mph 29.9 mph N/A   Unknown
4:15 PM 77.0 °F 60.8 °F 57% 29.83 in 10.0 mi South 17.3 mph 25.3 mph N/A   Unknown
4:35 PM 78.8 °F 60.8 °F 54% 29.82 in 10.0 mi South 21.9 mph 28.8 mph N/A   Unknown
4:55 PM 78.8 °F 59.0 °F 51% 29.81 in 10.0 mi South 20.7 mph 32.2 mph N/A   Unknown
5:15 PM 77.0 °F 60.8 °F 57% 29.81 in 10.0 mi South 16.1 mph 21.9 mph N/A   Unknown
5:35 PM 77.0 °F 59.0 °F 54% 29.80 in 10.0 mi South 15.0 mph - N/A   Unknown
5:55 PM 77.0 °F 59.0 °F 54% 29.79 in 10.0 mi South 15.0 mph 24.2 mph N/A   Unknown
6:15 PM 77.0 °F 59.0 °F 54% 29.78 in 10.0 mi SSE 17.3 mph - N/A   Unknown
6:35 PM 75.2 °F 60.8 °F 61% 29.77 in 10.0 mi SSE 13.8 mph - N/A   Unknown
6:55 PM 75.2 °F 60.8 °F 61% 29.76 in 10.0 mi SE 15.0 mph - N/A   Unknown
7:15 PM 75.2 °F 62.6 °F 65% 29.75 in 10.0 mi SSE 11.5 mph - N/A   Unknown
7:35 PM 75.2 °F 62.6 °F 65% 29.73 in 10.0 mi SSE 15.0 mph 20.7 mph N/A   Unknown
7:55 PM 75.2 °F 60.8 °F 61% 29.72 in 10.0 mi SSE 18.4 mph 24.2 mph N/A   Unknown
8:15 PM 75.2 °F 60.8 °F 61% 29.74 in 10.0 mi South 15.0 mph - N/A   Unknown
8:35 PM 75.2 °F 60.8 °F 61% 29.73 in 10.0 mi South 15.0 mph 20.7 mph N/A   Unknown
8:55 PM 75.2 °F 60.8 °F 61% 29.76 in 10.0 mi South 12.7 mph 18.4 mph N/A   Unknown
9:15 PM 71.6 °F 62.6 °F 73% 29.76 in 10.0 mi South 12.7 mph - N/A   Unknown
9:35 PM 71.6 °F 64.4 °F 78% 29.78 in 5.0 mi South 13.8 mph - 0.01 in   Unknown
9:55 PM 68.0 °F 64.4 °F 88% 29.80 in 2.5 mi South 9.2 mph - 0.07 in   Unknown
10:15 PM 68.0 °F 66.2 °F 94% 29.80 in 2.5 mi South 8.1 mph - 0.06 in   Unknown
10:35 PM 66.2 °F 66.2 °F 100% 29.74 in 8.0 mi SE 10.4 mph - 0.11 in   Unknown
10:55 PM 68.0 °F 64.4 °F 88% 29.73 in 10.0 mi SSE 21.9 mph 29.9 mph 0.11 in   Unknown
11:35 PM 68.0 °F 62.6 °F 83% 29.74 in 9.0 mi South 20.7 mph 28.8 mph N/A   Unknown
11:55 PM 68.0 °F 62.6 °F 83% 29.75 in 10.0 mi South 15.0 mph 21.9 mph N/A   Unknown